Jaffrey, NH

3:01 PM EST on January 20, 2017 (GMT -0500)
Jaffrey Airport-Silver Ranch

Weather History for KAFN - November, 2012

Change the Weather History Date:

Saturday, November 24, 2012

  Actual Average Record
Temperature  
Mean Temperature 37 °F -  
Max Temperature 44 °F 41 °F 62 °F (1999)
Min Temperature 28 °F 25 °F 8 °F (2000)
Degree Days  
Heating Degree Days 28    
Moisture  
Dew Point 23 °F    
Average Humidity 60    
Maximum Humidity 93    
Minimum Humidity 42    
Precipitation  
Precipitation 0.00 in - - ()
Sea Level Pressure  
Sea Level Pressure 29.61 in    
Wind  
Wind Speed 8 mph (West)    
Max Wind Speed 15 mph    
Max Gust Speed 29 mph    
Visibility 10 miles    
Events Rain    
Averages and records for this station are not official NWS values.
T = Trace of Precipitation, MM = Missing Value Source: NWS Daily Summary

Daily Weather History Graph

Daily Weather History Graph

Search for Another Location

Airport or City:

Trip Planner

Search our weather history database for the weather conditions in past years. The results will help you decide how hot, cold, wet, or windy it might be!

Date:

Astronomy

Nov. 24, 2012 Rise Set
Actual Time 6:51 AM EST 4:17 PM EST
Civil Twilight 6:20 AM EST 4:49 PM EST
Nautical Twilight 5:45 AM EST 5:23 PM EST
Astronomical Twilight 5:11 AM EST 5:57 PM EST
Moon 2:04 PM EST (11/24) 3:01 AM EST (11/24)
Length of Visible Light 10h 28m
Length of Day
9h 26m
Waxing Gibbous, 87% of the Moon is Illuminated
Nov 24
Waxing Gibbous
Nov 28
Full
Dec 6
Last Quarter
Dec 13
New
Dec 20
First Quarter

Hourly Weather History & Observations

Time (EST) Temp. Windchill Dew Point Humidity Pressure Visibility Wind Dir Wind Speed Gust Speed Precip Events Conditions
12:05 AM 42.8 °F 40.1 °F 41.0 °F 93% 29.60 in 8.0 mi SSW 4.6 mph - N/A   Overcast
12:14 AM 42.8 °F 38.6 °F 41.0 °F 93% 29.60 in 8.0 mi SSW 6.9 mph - 0.00 in Rain Light Rain
12:24 AM 42.8 °F 39.3 °F 41.0 °F 93% 29.60 in 8.0 mi South 5.8 mph - 0.00 in   Overcast
12:52 AM 43.0 °F 38.8 °F 41.0 °F 93% 29.62 in 8.0 mi SSW 6.9 mph - 0.00 in   Overcast
1:52 AM 44.1 °F 41.5 °F 41.0 °F 89% 29.60 in 8.0 mi Variable 4.6 mph - N/A   Overcast
2:52 AM 44.1 °F 41.5 °F 39.9 °F 85% 29.60 in 8.0 mi Variable 4.6 mph - 0.00 in   Overcast
3:22 AM 42.8 °F 38.6 °F 35.6 °F 76% 29.57 in 10.0 mi WNW 6.9 mph 23.0 mph N/A   Overcast
3:52 AM 42.1 °F 37.7 °F 34.0 °F 73% 29.59 in 10.0 mi Variable 6.9 mph - N/A   Overcast
4:52 AM 39.9 °F 36.7 °F 28.0 °F 63% 29.61 in 10.0 mi West 4.6 mph - N/A   Overcast
5:52 AM 39.0 °F 32.8 °F 23.0 °F 53% 29.62 in 10.0 mi West 9.2 mph 19.6 mph N/A   Overcast
6:52 AM 37.0 °F 29.8 °F 17.1 °F 44% 29.63 in 10.0 mi West 10.4 mph 16.1 mph N/A   Overcast
7:52 AM 36.0 °F 27.5 °F 17.1 °F 46% 29.64 in 10.0 mi West 12.7 mph 20.7 mph N/A   Overcast
8:52 AM 36.0 °F 27.1 °F 19.0 °F 50% 29.64 in 10.0 mi West 13.8 mph 20.7 mph N/A   Clear
9:52 AM 37.0 °F 30.4 °F 18.0 °F 46% 29.63 in 10.0 mi West 9.2 mph 20.7 mph N/A   Mostly Cloudy
10:52 AM 37.9 °F 29.6 °F 18.0 °F 45% 29.61 in 10.0 mi WNW 13.8 mph 25.3 mph N/A   Mostly Cloudy
11:52 AM 37.0 °F 29.8 °F 17.1 °F 44% 29.59 in 10.0 mi WNW 10.4 mph 20.7 mph N/A   Overcast
12:52 PM 37.0 °F 29.8 °F 18.0 °F 46% 29.57 in 10.0 mi NW 10.4 mph 17.3 mph N/A   Mostly Cloudy
1:52 PM 36.0 °F 26.7 °F 17.1 °F 46% 29.57 in 10.0 mi West 15.0 mph 24.2 mph N/A   Mostly Cloudy
2:52 PM 36.0 °F 29.0 °F 16.0 °F 44% 29.57 in 10.0 mi WNW 9.2 mph - N/A   Overcast
3:52 PM 34.0 °F 25.0 °F 16.0 °F 48% 29.58 in 10.0 mi West 12.7 mph 21.9 mph N/A   Overcast
4:52 PM 33.1 °F 24.4 °F 12.0 °F 42% 29.60 in 10.0 mi WNW 11.5 mph 23.0 mph 0.00 in   Overcast
5:52 PM 32.0 °F 23.6 °F 15.1 °F 50% 29.62 in 10.0 mi WNW 10.4 mph 19.6 mph N/A   Partly Cloudy
6:52 PM 30.9 °F 22.2 °F 12.0 °F 46% 29.64 in 10.0 mi WNW 10.4 mph 28.8 mph N/A   Clear
7:52 PM 30.0 °F 22.4 °F 12.0 °F 47% 29.65 in 10.0 mi WNW 8.1 mph 16.1 mph N/A   Mostly Cloudy
8:52 PM 30.0 °F 20.5 °F 12.9 °F 49% 29.65 in 10.0 mi WNW 11.5 mph 17.3 mph N/A   Overcast
9:52 PM 30.0 °F 20.5 °F 12.9 °F 49% 29.65 in 10.0 mi West 11.5 mph 21.9 mph N/A   Overcast
11:52 PM 28.0 °F 19.3 °F 14.0 °F 56% 29.66 in 10.0 mi West 9.2 mph 21.9 mph N/A   Mostly Cloudy